This is the latest recevied weather packets stored in our database for station/object N8XHB. If no packets are shown the sender has not sent any weather packets the latest 10 day(s).
| Time | Temp. | Humidity | Pressure | Rain* | Wind** | Luminosity | Snow |
|---|---|---|---|---|---|---|---|
| 1777665119 | 6.67° C | 53% | 1015.9 hPa | 0 mm | - | 71 W/m² | - |
| 1777664815 | 6.67° C | 52% | 1016.1 hPa | 0 mm | - | 58 W/m² | - |
| 1777664510 | 6.67° C | 50% | 1015.9 hPa | 0 mm | - | 64 W/m² | - |
| 1777664208 | 6.67° C | 52% | 1015.9 hPa | 0 mm | - | 75 W/m² | - |
| 1777663907 | 6.67° C | 51% | 1015.9 hPa | 0 mm | - | 71 W/m² | - |
| 1777663603 | 7.22° C | 49% | 1015.9 hPa | 0 mm | - | 88 W/m² | - |
| 1777663301 | 7.22° C | 50% | 1015.8 hPa | 0 mm | - | 131 W/m² | - |
| 1777662998 | 7.78° C | 51% | 1015.8 hPa | 0 mm | - | 137 W/m² | - |
| 1777662695 | 7.22° C | 52% | 1015.8 hPa | 0 mm | - | 149 W/m² | - |
| 1777662391 | 7.22° C | 51% | 1015.8 hPa | 0 mm | - | 175 W/m² | - |
| 1777662086 | 7.22° C | 52% | 1015.6 hPa | 0 mm | - | 194 W/m² | - |
| 1777661783 | 7.22° C | 52% | 1015.7 hPa | 0 mm | - | 164 W/m² | - |
| 1777661478 | 7.22° C | 53% | 1015.6 hPa | 0 mm | - | 152 W/m² | - |
| 1777661175 | 7.22° C | 52% | 1015.5 hPa | 0 mm | - | 187 W/m² | - |
| 1777660870 | 7.22° C | 50% | 1015.3 hPa | 0 mm | - | 135 W/m² | - |
| 1777660567 | 7.78° C | 50% | 1015.5 hPa | 0 mm | - | 150 W/m² | - |
| 1777660263 | 7.78° C | 50% | 1015.5 hPa | 0 mm | - | 183 W/m² | - |
| 1777659960 | 7.22° C | 52% | 1015.3 hPa | 0 mm | - | 164 W/m² | - |
| 1777659657 | 7.78° C | 50% | 1015.6 hPa | 0 mm | - | 123 W/m² | - |
| 1777659354 | 7.22° C | 51% | 1015.5 hPa | 0 mm | - | 120 W/m² | - |
| 1777659051 | 7.22° C | 50% | 1015.3 hPa | 0 mm | - | 155 W/m² | - |
| 1777658749 | 7.78° C | 52% | 1015.3 hPa | 0 mm | - | 194 W/m² | - |
| 1777658444 | 7.78° C | 50% | 1015.2 hPa | 0 mm | - | 244 W/m² | - |
| 1777658141 | 7.78° C | 51% | 1015.5 hPa | 0 mm | - | 277 W/m² | - |
| 1777657838 | 7.78° C | 51% | 1015.6 hPa | 0 mm | - | 252 W/m² | - |
* Rain latest hour (hover to see other rain measurements)
** Current wind speed in m/s (hover to see current wind gust speed)